Location: Pl�tzky
(52.0521°N, 11.8020°E)
Time: 12:54:26
(UTC+00:00)

CZ-4B R/B - Pass Details

Date: 22 November 2019
Orbit: 809 x 882 km, 99.1° (Epoch: 09 December)

Event Time Altitude Azimuth Distance (km) Brightness Sun altitude
Rises 15:53:34 0° 171° (S) 3,320 6.5 -6.3°
Reaches altitude 10° 15:55:55 10° 174° (S) 2,390 5.8 -6.6°
Maximum altitude 16:01:09 66° 257° (WSW) 885 3.7 -7.3°
Drops below altitude 10° 16:06:27 10° 339° (NNW) 2,415 5.6 -8.1°
Sets 16:08:51 0° 343° (NNW) 3,357 6.3 -8.4°
